South Bend, IN

2:47 PM EDT on March 28, 2017 (GMT -0400)
South Bend Regional

Weather History for KSBN - December, 2013

Change the Weather History Date:

Tuesday, December 3, 2013

  Actual Average Record
Temperature  
Mean Temperature 42 °F 33 °F  
Max Temperature 49 °F 39 °F 67 °F (1998)
Min Temperature 34 °F 27 °F -5 °F (1942)
Degree Days  
Heating Degree Days 23 32  
Month to date heating degree days 85 95  
Since 1 July heating degree days 1374 1364  
Cooling Degree Days 0 0  
Month to date cooling degree days 0 0  
Year to date cooling degree days 828 773  
Moisture  
Dew Point 38 °F    
Average Humidity 86    
Maximum Humidity 92    
Minimum Humidity 80    
Precipitation  
Precipitation 0.09 in 0.09 in 1.01 in (1982)
Month to date precipitation 0.11 0.28  
Year to date precipitation 38.13 35.67  
Snow  
Snow 0.00 in 0.40 in 8.60 in (1989)
Month to date snowfall 0.0 1.1  
Since 1 July snowfall 9.2 6.3  
Snow Depth 0.00 in    
Sea Level Pressure  
Sea Level Pressure 29.79 in    
Wind  
Wind Speed 11 mph (SE)    
Max Wind Speed 18 mph    
Max Gust Speed 21 mph    
Visibility 4 miles    
Events Rain    
T = Trace of Precipitation, MM = Missing Value Source: NWS Daily Summary

Daily Weather History Graph

Daily Weather History Graph

Search for Another Location

Airport or City:

Trip Planner

Search our weather history database for the weather conditions in past years. The results will help you decide how hot, cold, wet, or windy it might be!

Date:

Astronomy

Dec. 03, 2013 Rise Set
Actual Time 7:55 AM EST 5:15 PM EST
Civil Twilight 7:24 AM EST 5:46 PM EST
Nautical Twilight 6:49 AM EST 6:20 PM EST
Astronomical Twilight 6:15 AM EST 6:54 PM EST
Moon 8:23 AM EST (12/3) 6:18 PM EST (12/3)
Length of Visible Light 10h 22m
Length of Day
9h 19m
New Moon, 1% of the Moon is Illuminated
Dec 3
New Moon
Dec 9
First Quarter
Dec 17
Full
Dec 25
Last Quarter
Jan 1
New

Hourly Weather History & Observations

Time (EST) Temp. Windchill Dew Point Humidity Pressure Visibility Wind Dir Wind Speed Gust Speed Precip Events Conditions
12:08 AM 35.6 °F 27.1 °F 30.2 °F 81% 29.82 in 6.0 mi ESE 12.7 mph - 0.00 in Rain Light Rain
12:23 AM 35.6 °F 27.1 °F 30.2 °F 81% 29.82 in 5.0 mi ESE 12.7 mph - 0.01 in Rain Light Rain
12:54 AM 34.0 °F 25.0 °F 30.9 °F 89% 29.84 in 4.0 mi ESE 12.7 mph - 0.03 in Rain Rain
1:23 AM 33.8 °F 24.8 °F 30.2 °F 87% 29.81 in 5.0 mi ESE 12.7 mph - 0.03 in Rain Light Rain
1:38 AM 33.8 °F 25.8 °F 30.2 °F 87% 29.80 in 4.0 mi East 10.4 mph - 0.05 in Rain Rain
1:46 AM 35.6 °F 28.0 °F 30.2 °F 81% 29.80 in 4.0 mi East 10.4 mph - 0.06 in Rain Light Rain
1:54 AM 35.1 °F 27.9 °F 30.9 °F 85% 29.83 in 6.0 mi East 9.2 mph - 0.06 in Rain Light Rain
2:54 AM 35.1 °F 26.9 °F 32.0 °F 89% 29.81 in 5.0 mi ESE 11.5 mph - 0.00 in   Overcast
3:54 AM 35.1 °F 25.9 °F 32.0 °F 89% 29.82 in 6.0 mi ESE 13.8 mph - 0.00 in   Overcast
4:54 AM 35.1 °F 25.5 °F 32.0 °F 89% 29.79 in 5.0 mi SE 15.0 mph - N/A   Overcast
5:54 AM 35.1 °F 27.9 °F 33.1 °F 92% 29.81 in 5.0 mi ESE 9.2 mph - N/A   Overcast
6:54 AM 36.0 °F 28.0 °F 33.1 °F 89% 29.80 in 4.0 mi SE 11.5 mph - N/A   Overcast
7:54 AM 36.0 °F 27.1 °F 33.1 °F 89% 29.78 in 4.0 mi SE 13.8 mph - N/A   Overcast
8:22 AM 37.4 °F 30.3 °F 33.8 °F 87% 29.77 in 2.5 mi ESE 10.4 mph - N/A   Overcast
8:54 AM 37.0 °F 29.3 °F 34.0 °F 89% 29.79 in 2.5 mi SE 11.5 mph - N/A   Overcast
9:21 AM 37.4 °F 30.8 °F 35.6 °F 93% 29.79 in 3.0 mi SE 9.2 mph - N/A   Overcast
9:30 AM 37.4 °F 32.1 °F 35.6 °F 93% 29.79 in 2.5 mi SE 6.9 mph - N/A   Overcast
9:54 AM 39.0 °F 32.3 °F 35.1 °F 86% 29.82 in 2.5 mi SE 10.4 mph - N/A   Overcast
10:50 AM 39.2 °F 30.8 °F 35.6 °F 87% 29.80 in 2.5 mi SE 15.0 mph - 0.00 in Rain Light Rain
10:51 AM 39.9 °F 31.8 °F 36.0 °F 86% 29.82 in 2.5 mi SE 15.0 mph - 0.00 in Rain Light Rain
11:20 AM 39.2 °F 32.0 °F 37.4 °F 93% 29.79 in 2.5 mi SSE 11.5 mph - 0.00 in   Overcast
11:54 AM 41.0 °F 34.3 °F 37.9 °F 89% 29.80 in 2.5 mi SE 11.5 mph - 0.00 in   Overcast
12:54 PM 44.1 °F 38.1 °F 39.9 °F 85% 29.78 in 3.0 mi SE 11.5 mph - N/A   Overcast
1:45 PM 44.6 °F 39.2 °F 41.0 °F 87% 29.75 in 2.5 mi SSE 10.4 mph - N/A   Overcast
1:54 PM 45.0 °F 40.1 °F 41.0 °F 86% 29.76 in 2.5 mi SE 9.2 mph - N/A   Overcast
2:41 PM 46.4 °F 41.9 °F 42.8 °F 87% 29.74 in 3.0 mi SSE 9.2 mph - N/A   Overcast
2:54 PM 48.0 °F - 43.0 °F 83% 29.75 in 2.5 mi SSE 10.4 mph - N/A   Haze
3:54 PM 48.9 °F - 44.1 °F 83% 29.76 in 2.5 mi South 10.4 mph - N/A   Haze
4:00 PM 48.2 °F - 44.6 °F 87% 29.74 in 2.5 mi South 10.4 mph - N/A   Haze
4:54 PM 48.9 °F - 44.1 °F 83% 29.76 in 2.5 mi SSE 8.1 mph - N/A   Haze
5:13 PM 48.2 °F - 44.6 °F 87% 29.74 in 2.5 mi SSE 10.4 mph - N/A   Overcast
5:54 PM 48.9 °F - 45.0 °F 86% 29.75 in 3.0 mi South 10.4 mph - N/A   Overcast
6:03 PM 48.2 °F - 44.6 °F 87% 29.74 in 5.0 mi South 12.7 mph - N/A   Overcast
6:54 PM 48.9 °F - 45.0 °F 86% 29.77 in 4.0 mi South 11.5 mph - N/A   Overcast
7:54 PM 48.0 °F - 45.0 °F 89% 29.76 in 3.0 mi SSE 11.5 mph - N/A   Overcast
8:54 PM 48.0 °F - 45.0 °F 89% 29.78 in 4.0 mi South 10.4 mph - N/A   Overcast
9:54 PM 48.0 °F - 45.0 °F 89% 29.80 in 4.0 mi South 9.2 mph - 0.00 in   Overcast
10:16 PM 48.2 °F - 44.6 °F 87% 29.79 in 4.0 mi South 5.8 mph - N/A   Overcast
10:38 PM 48.2 °F - 44.6 °F 87% 29.80 in 4.0 mi SW 3.5 mph - N/A   Overcast
10:54 PM 48.0 °F - 45.0 °F 89% 29.81 in 4.0 mi Calm Calm - N/A   Overcast
11:54 PM 46.9 °F - 44.1 °F 90% 29.79 in 3.0 mi ESE 8.1 mph - N/A   Overcast